Find Starlink 31994

NORAD ID: 60588 Int'l Des: 2024-150 Owner: SPXS Country: US Constellation: starlink operational
LEOCIRCULAR

リアルタイム位置

3D地球を読み込み中...

Starlink 31994について

説明を読み込み中...

次回通過

Passes for default location (London). Set your location on the main map for personalized predictions.

高度履歴

Loading altitude history...

軌道要素

1 60588U 24150F 26130.16935852 -.00001370 00000-0 -29445-4 0 9991
2 60588 53.1617 20.7888 0001013 83.0399 277.0719 15.34376608 97385
Epoch: May 10, 2026 • Age: 18 hours

現在のステータス

高度 475.6 km
速度 7.63 km/s
衛星直下点 -37.78°S, 29.94°E
打ち上げ日 Aug 20, 2024
運用期間 1.7 years
タイプ internet

技術仕様

分類 Payload
質量 730.00 kg
乾燥質量 700.00 kg
総質量 730.00 kg
長さ 0.30 m
直径 4.10 m
スパン 29.00 m
形状 Box + pan
製造者 SPXS
バスタイプ Starlink V2M
フェーズステータス In Orbit
所有者/国 SPXS/US

Most Searched